Regional Weather Roundup
Issued by NWS Little Rock, AR

Home | Current Version | Previous Version | Graphics & Text | Print | Product List | Glossary On
Versions: 1 2 3 4 5 6 7 8 9 10 11 12 13 14 15 16 17 18 19 20 21 22 23 24 25 26 27 28 29 30 31 32 33 34 35 36 37 38 39 40 41 42 43 44 45 46 47 48 49 50
000
ASUS44 KLZK 291505
RWRLZK

WEATHER ROUNDUP FOR ARKANSAS
NATIONAL WEATHER SERVICE LITTLE ROCK AR
1000 AM CDT SUN MAR 29 2015

NOTE: "FAIR" INDICATES FEW OR NO CLOUDS BELOW 12,000 FEET WITH NO
SIGNIFICANT WEATHER AND/OR OBSTRUCTIONS TO VISIBILITY.

ARZ001-003-010-029-291600-
NORTHWEST ARKANSAS

CITY           SKY/WX    TMP DP  RH WIND       PRES   REMARKS
FAYETTEVILLE   SUNNY     53  40  61 S16       30.01F
FORT SMITH     SUNNY     47  35  63 E15       30.08F
HARRISON       SUNNY     52  35  52 SE16      30.05S
BENTONVILLE    SUNNY     55  37  50 S21       29.98F
ROGERS         SUNNY     54  38  54 S10G25    30.00F
SILOAM SPGS    SUNNY     54  36  50 S14G24    30.01S
HIGHFILL       SUNNY     55  38  52 S22       29.98F
SPRINGDALE     SUNNY     57  39  51 S17G29    30.02F
$$

ARZ004-005-016-291600-
NORTH CENTRAL ARKANSAS

CITY           SKY/WX    TMP DP  RH WIND       PRES   REMARKS
BATESVILLE     CLOUDY    43  32  65 SE8       30.18F
FLIPPIN        SUNNY     48  30  49 E7        30.10S
MTN HOME       SUNNY     45  30  55 SE13      30.10F
$$

ARZ040-041-291600-
WEST CENTRAL ARKANSAS

CITY           SKY/WX    TMP DP  RH WIND       PRES   REMARKS
MENA           SUNNY     50  39  66 CALM      30.09F
MOUNT IDA      MOSUNNY   49  40  71 VRB5      30.10F
$$

ARZ009-017-025-026-028-291600-
NORTHEAST ARKANSAS

CITY           SKY/WX    TMP DP  RH WIND       PRES   REMARKS
CORNING          N/A     46  30  53 S12       30.23F
JONESBORO      CLOUDY    43  30  60 S17G23    30.23S
NEWPORT        CLOUDY    43  34  70 S12       30.22F
BLYTHEVILLE    SUNNY     46  28  49 S17G24    30.24F
$$

ARZ022-023-033-042-044-291600-
CENTRAL ARKANSAS

CITY           SKY/WX    TMP DP  RH WIND       PRES   REMARKS
LITTLE ROCK    CLOUDY    48  36  63 SE10      30.19S
N LITTLE ROCK  CLOUDY    45  39  78 SE10      30.19S
JACKSONVILLE   CLOUDY    47  37  68 SE10      30.19S
SEARCY         CLOUDY    45  36  70 SE7       30.22F
HOT SPRINGS    CLOUDY    45  39  79 S8        30.17S
RUSSELLVILLE   SUNNY     45  36  70 E8        30.15F
CLINTON        CLOUDY    43  34  70 CALM      30.19F
$$

ARZ036-291600-
EAST ARKANSAS

CITY           SKY/WX    TMP DP  RH WIND       PRES   REMARKS
WEST MEMPHIS   CLOUDY    46  32  58 S13       30.23S
$$

ARZ050-053-066-070-073-291600-
SOUTHWEST ARKANSAS

CITY           SKY/WX    TMP DP  RH WIND       PRES   REMARKS
ARKADELPHIA    CLOUDY    46  41  83 S3        30.18F
CAMDEN         CLOUDY    54  41  62 MISG      30.19R
TEXARKANA      CLOUDY    51  47  86 S9        30.15S
EL DORADO      CLOUDY    55  47  74 S8        30.19S
DE QUEEN       SUNNY     49  39  68 E7        30.12F
$$

ARZ056-057-069-291600-
SOUTHEAST ARKANSAS

CITY           SKY/WX    TMP DP  RH WIND       PRES   REMARKS
PINE BLUFF     CLOUDY    50  39  66 SE13      30.20F
STUTTGART      CLOUDY    48  36  61 SE14      30.20S
MONTICELLO     CLOUDY    50  39  66 S8        30.21S

$$




USA.gov is the U.S. government's official web portal to all federal, state and local government web resources and services.